Weather History for Warrenton, VA

Change the Weather History Date:

Thursday, September 5, 2013

  Actual Average (KHEF) Record (KHEF)
Temperature  
Mean Temperature 71 °F -  
Max Temperature 87 °F 79 °F 89 °F (2007)
Min Temperature 55 °F 58 °F 42 °F (1997)
Cooling Degree Days 6    
Growing Degree Days 21 (Base 50)    
Moisture  
Dew Point 63 °F    
Average Humidity 77    
Maximum Humidity 100    
Minimum Humidity 51    
Precipitation  
Precipitation 0.00 in - - ()
Sea Level Pressure  
Sea Level Pressure 30.07 in    
Wind  
Wind Speed 3 mph (NW)    
Max Wind Speed 13 mph    
Max Gust Speed 9 mph    
Visibility 7 miles    
Events Fog    
Averages and records for this station are not official NWS values.
T = Trace of Precipitation, MM = Missing Value Source: NWS Daily Summary

Daily Weather History Graph

Daily Weather History Graph

Search for Another Location

Airport:

Trip Planner

Search our weather history database for the weather conditions in past years. The results will help you decide how hot, cold, wet, or windy it might be!

Date:

Astronomy

Sep. 05, 2013 Rise Set
Actual Time 6:43 AM EDT 7:34 PM EDT
Civil Twilight 6:16 AM EDT 8:01 PM EDT
Nautical Twilight 5:44 AM EDT 8:33 PM EDT
Astronomical Twilight 5:11 AM EDT 9:06 PM EDT
Moon 6:52 AM EDT (9/5) 7:26 PM EDT (9/5)
Length of Visible Light 13h 44m
Length of Day
12h 50m
New Moon, 0% of the Moon is Illuminated
Sep 5
New Moon
Sep 12
First Quarter
Sep 19
Full
Sep 26
Last Quarter
Oct 4
New

Hourly Weather History & Observations

Time (EDT) Temp. Heat Index Dew Point Humidity Pressure Visibility Wind Dir Wind Speed Gust Speed Precip Events Conditions
12:15 AM 62.8 °F - 62.8 °F 100% 30.07 in 10.0 mi Calm Calm - N/A   Clear
12:35 AM 62.2 °F - 62.2 °F 100% 30.07 in 4.0 mi Calm Calm - N/A   Clear
12:55 AM 61.9 °F - 61.9 °F 100% 30.07 in 1.0 mi Calm Calm - N/A   Mist
1:15 AM 62.4 °F - 62.4 °F 100% 30.07 in 5.0 mi Calm Calm - N/A   Clear
1:35 AM 61.5 °F - 61.5 °F 100% 30.07 in 5.0 mi Calm Calm - N/A   Clear
1:55 AM 60.8 °F - 60.8 °F 100% 30.07 in 4.0 mi Calm Calm - N/A   Clear
2:15 AM 59.2 °F - 59.2 °F 100% 30.07 in 1.0 mi Calm Calm - N/A   Mist
2:35 AM 58.8 °F - 58.8 °F 100% 30.06 in 0.2 mi Calm Calm - N/A Fog Fog
2:55 AM 57.7 °F - 57.7 °F 100% 30.06 in 0.2 mi Calm Calm - N/A Fog Fog
3:15 AM 56.3 °F - 56.3 °F 100% 30.06 in 0.2 mi Calm Calm - N/A Fog Fog
3:35 AM 55.6 °F - 55.6 °F 100% 30.06 in 0.2 mi Calm Calm - N/A Fog Fog
3:55 AM 57.2 °F - 57.2 °F 100% 30.05 in 0.2 mi Calm Calm - N/A Fog Fog
4:15 AM 57.0 °F - 57.0 °F 100% 30.05 in 1.8 mi Calm Calm - N/A   Mist
4:35 AM 57.6 °F - 57.6 °F 100% 30.05 in 0.5 mi Calm Calm - N/A Fog Fog
4:55 AM 55.8 °F - 55.8 °F 100% 30.06 in 0.8 mi Calm Calm - N/A   Mist
5:15 AM 56.8 °F - 56.8 °F 100% 30.06 in 0.8 mi Calm Calm - N/A   Mist
5:35 AM 55.2 °F - 55.2 °F 100% 30.06 in 0.5 mi Calm Calm - N/A Fog Fog
5:55 AM 58.3 °F - 58.3 °F 100% 30.07 in 0.8 mi Calm Calm - N/A   Mist
6:15 AM 56.3 °F - 56.3 °F 100% 30.06 in 3.0 mi Calm Calm - N/A   Clear
6:35 AM 55.9 °F - 55.9 °F 100% 30.06 in 1.5 mi Calm Calm - N/A   Mist
6:55 AM 55.9 °F - 55.9 °F 100% 30.06 in 0.2 mi Calm Calm - N/A Fog Fog
7:15 AM 56.5 °F - 56.5 °F 100% 30.06 in 1.8 mi Calm Calm - N/A   Mist
7:35 AM 59.7 °F - 59.7 °F 100% 30.07 in 4.0 mi Calm Calm - N/A   Clear
7:55 AM 61.2 °F - 61.2 °F 100% 30.07 in 7.0 mi Calm Calm - N/A   Clear
8:15 AM 62.6 °F - 62.6 °F 100% 30.07 in 10.0 mi Calm Calm - N/A   Clear
8:35 AM 64.4 °F - 64.4 °F 100% 30.07 in 10.0 mi Calm Calm - N/A   Clear
8:55 AM 68.5 °F - 66.9 °F 95% 30.07 in 10.0 mi Calm Calm - N/A   Clear
9:15 AM 70.9 °F - 66.7 °F 87% 30.07 in 10.0 mi SW 3.5 mph - N/A   Clear
9:35 AM 73.8 °F - 66.9 °F 79% 30.07 in 10.0 mi Calm Calm - N/A   Clear
9:55 AM 76.5 °F - 67.5 °F 74% 30.08 in 10.0 mi Calm Calm - N/A   Clear
10:15 AM 78.8 °F - 68.2 °F 70% 30.08 in 10.0 mi Calm Calm - N/A   Clear
10:35 AM 81.5 °F 84.1 °F 67.5 °F 62% 30.08 in 10.0 mi WNW 8.1 mph - N/A   Clear
10:55 AM 82.4 °F 84.6 °F 66.4 °F 58% 30.08 in 10.0 mi West 5.8 mph - N/A   Clear
11:15 AM 82.8 °F 85.1 °F 66.4 °F 58% 30.08 in 10.0 mi West 8.1 mph - N/A   Clear
11:35 AM 83.7 °F 86.5 °F 67.3 °F 58% 30.08 in 10.0 mi NW 5.8 mph - N/A   Clear
11:55 AM 83.8 °F 86.5 °F 67.1 °F 57% 30.07 in 10.0 mi WNW 4.6 mph - N/A   Clear
12:15 PM 84.6 °F 87.1 °F 66.7 °F 55% 30.07 in 10.0 mi WNW 12.7 mph - N/A   Clear
12:35 PM 84.2 °F 86.6 °F 66.2 °F 55% 30.07 in 10.0 mi WNW 10.4 mph - N/A   Clear
12:55 PM 83.5 °F 85.7 °F 66.4 °F 56% 30.07 in 10.0 mi NW 8.1 mph - N/A   Scattered Clouds
1:15 PM 85.1 °F 88.2 °F 67.6 °F 56% 30.06 in 10.0 mi WNW 5.8 mph - N/A   Scattered Clouds
1:35 PM 86.2 °F 89.7 °F 68.4 °F 55% 30.06 in 10.0 mi WNW 5.8 mph 9.2 mph N/A   Scattered Clouds
1:55 PM 85.3 °F 88.2 °F 67.3 °F 55% 30.05 in 10.0 mi Calm Calm - N/A   Scattered Clouds
2:15 PM 86.7 °F 90.6 °F 68.5 °F 55% 30.05 in 10.0 mi WSW 8.1 mph - N/A   Scattered Clouds
2:35 PM 87.3 °F 91.6 °F 69.1 °F 55% 30.04 in 10.0 mi West 4.6 mph - N/A   Scattered Clouds
2:55 PM 84.6 °F 88.2 °F 68.9 °F 59% 30.04 in 10.0 mi West 5.8 mph - N/A   Scattered Clouds
3:15 PM 86.9 °F 91.0 °F 69.1 °F 55% 30.03 in 10.0 mi SW 6.9 mph - N/A   Scattered Clouds
3:35 PM 84.6 °F 87.9 °F 68.5 °F 58% 30.02 in 10.0 mi WNW 6.9 mph - N/A   Scattered Clouds
3:55 PM 86.7 °F 90.6 °F 68.5 °F 55% 30.02 in 10.0 mi NW 4.6 mph - N/A   Scattered Clouds
4:15 PM 86.9 °F 89.6 °F 66.7 °F 51% 30.02 in 10.0 mi Calm Calm - N/A   Scattered Clouds
4:35 PM 85.8 °F 89.7 °F 68.9 °F 57% 30.02 in 10.0 mi NW 4.6 mph - N/A   Scattered Clouds
4:55 PM 83.8 °F 86.5 °F 67.1 °F 57% 30.02 in 10.0 mi NW 6.9 mph - N/A   Scattered Clouds
5:15 PM 85.5 °F 87.9 °F 66.7 °F 53% 30.02 in 10.0 mi NW 11.5 mph - N/A   Scattered Clouds
5:35 PM 84.4 °F 87.3 °F 67.5 °F 57% 30.03 in 10.0 mi NNW 8.1 mph - N/A   Clear
5:55 PM 83.3 °F 85.7 °F 66.4 °F 57% 30.03 in 10.0 mi North 11.5 mph - N/A   Clear
6:15 PM 82.4 °F 84.8 °F 66.9 °F 59% 30.04 in 10.0 mi NNW 9.2 mph - N/A   Clear
6:35 PM 81.1 °F 83.4 °F 66.6 °F 61% 30.04 in 10.0 mi NNW 9.2 mph - N/A   Clear
6:55 PM 79.5 °F - 66.2 °F 64% 30.05 in 10.0 mi NNW 8.1 mph - N/A   Clear
7:15 PM 78.1 °F - 64.6 °F 63% 30.05 in 10.0 mi NNW 6.9 mph - N/A   Clear
7:35 PM 77.0 °F - 63.3 °F 63% 30.05 in 10.0 mi NNW 8.1 mph - N/A   Clear
7:55 PM 75.9 °F - 62.4 °F 63% 30.06 in 10.0 mi NNW 10.4 mph - N/A   Clear
8:15 PM 75.7 °F - 61.9 °F 62% 30.07 in 10.0 mi NNW 10.4 mph - N/A   Scattered Clouds
8:35 PM 74.3 °F - 61.7 °F 65% 30.08 in 10.0 mi North 8.1 mph - N/A   Scattered Clouds
8:55 PM 72.9 °F - 61.7 °F 68% 30.08 in 10.0 mi North 8.1 mph - N/A   Clear
9:15 PM 73.6 °F - 61.3 °F 65% 30.09 in 10.0 mi North 10.4 mph - N/A   Clear
9:35 PM 72.5 °F - 61.2 °F 67% 30.10 in 10.0 mi North 9.2 mph - N/A   Clear
9:55 PM 72.1 °F - 60.8 °F 67% 30.11 in 10.0 mi North 8.1 mph - N/A   Clear
10:15 PM 69.8 °F - 61.0 °F 73% 30.12 in 10.0 mi North 5.8 mph - N/A   Clear
10:35 PM 69.4 °F - 60.8 °F 74% 30.12 in 10.0 mi North 5.8 mph - N/A   Clear
10:55 PM 67.1 °F - 60.4 °F 79% 30.13 in 10.0 mi North 4.6 mph - N/A   Clear
11:15 PM 65.7 °F - 60.1 °F 82% 30.13 in 10.0 mi North 4.6 mph - N/A   Clear
11:35 PM 64.2 °F - 59.4 °F 84% 30.13 in 10.0 mi NNW 5.8 mph - N/A   Clear
11:55 PM 63.5 °F - 58.5 °F 84% 30.14 in 10.0 mi NNW 6.9 mph - N/A   Clear